When you browse on this site, cookies collect data to enhance your experience and personalize the content and advertising you see.
Visit our Privacy Policy to learn more. By continuing to use the site, you agree to this use of cookies and data.
  • In Österreich
  • Länderverzeichnis
  • Für 7 Tage
  • Wassertemperatur
  • Satellitenkarten
  • Wetterkarte
  • News
  • Widgets
  • user-avatar
    Anmelden

    Stündliche Wetter Newcastle

    Heute, 17 Juli, Mittwoch

    Zeit Temperatur Niederschläge Wind Luftdruck Luftfeuchtigkeit
    00:00 +8°C° 0 mm 4 m/S 764 mmHg 82%
    01:00 +7°C° 0 mm 4 m/S 763 mmHg 85%
    02:00 +7°C° 0 mm 4 m/S 763 mmHg 85%
    03:00 +7°C° 0 mm 4 m/S 763 mmHg 85%
    04:00 +7°C° 0 mm 4 m/S 763 mmHg 86%
    05:00 +6°C° 0 mm 4 m/S 763 mmHg 87%
    06:00 +7°C° 0 mm 3 m/S 763 mmHg 88%
    07:00 +7°C° 0 mm 3 m/S 763 mmHg 89%
    08:00 +9°C° 0 mm 3 m/S 763 mmHg 80%
    09:00 +11°C° 0 mm 3 m/S 763 mmHg 72%
    10:00 +13°C° 0 mm 4 m/S 763 mmHg 64%
    11:00 +14°C° 0 mm 4 m/S 762 mmHg 59%
    12:00 +17°C° 0 mm 4 m/S 762 mmHg 54%
    13:00 +18°C° 0 mm 4 m/S 761 mmHg 49%
    14:00 +18°C° 0 mm 4 m/S 760 mmHg 50%
    15:00 +18°C° 0 mm 4 m/S 760 mmHg 50%
    16:00 +18°C° 0 mm 4 m/S 760 mmHg 50%
    17:00 +16°C° 0 mm 5 m/S 760 mmHg 53%
    18:00 +15°C° 0 mm 6 m/S 760 mmHg 55%
    19:00 +13°C° 0 mm 6 m/S 761 mmHg 58%
    20:00 +11°C° 0 mm 6 m/S 761 mmHg 61%
    21:00 +10°C° 0 mm 6 m/S 761 mmHg 64%
    22:00 +9°C° 0 mm 6 m/S 761 mmHg 68%
    23:00 +8°C° 0 mm 6 m/S 761 mmHg 68%

    Morgen, 18 Juli, Donnerstag

    Zeit Temperatur Niederschläge Wind Luftdruck Luftfeuchtigkeit
    00:00 +8°C° 0 mm 6 m/S 761 mmHg 69%
    01:00 +7°C° 0 mm 6 m/S 761 mmHg 69%
    02:00 +7°C° 0 mm 6 m/S 761 mmHg 69%
    03:00 +7°C° 0 mm 6 m/S 760 mmHg 70%
    04:00 +7°C° 0 mm 6 m/S 760 mmHg 70%
    05:00 +7°C° 0 mm 6 m/S 760 mmHg 70%
    06:00 +7°C° 0 mm 6 m/S 761 mmHg 71%
    07:00 +8°C° 0 mm 6 m/S 761 mmHg 71%
    08:00 +9°C° 0 mm 6 m/S 761 mmHg 67%
    09:00 +10°C° 0 mm 6 m/S 762 mmHg 62%
    10:00 +13°C° 0 mm 5 m/S 762 mmHg 57%
    11:00 +14°C° 0 mm 5 m/S 761 mmHg 52%
    12:00 +17°C° 0 mm 4 m/S 761 mmHg 46%
    13:00 +18°C° 0 mm 3 m/S 760 mmHg 41%
    14:00 +18°C° 0 mm 3 m/S 760 mmHg 43%
    15:00 +17°C° 0 mm 3 m/S 761 mmHg 44%
    16:00 +17°C° 0 mm 2 m/S 761 mmHg 46%
    17:00 +15°C° 0 mm 2 m/S 761 mmHg 50%
    18:00 +13°C° 0 mm 1 m/S 761 mmHg 55%
    19:00 +11°C° 0 mm 1 m/S 762 mmHg 60%
    20:00 +10°C° 0 mm 2 m/S 762 mmHg 59%
    21:00 +10°C° 0 mm 3 m/S 763 mmHg 59%
    22:00 +8°C° 0 mm 4 m/S 763 mmHg 59%
    23:00 +8°C° 0 mm 4 m/S 763 mmHg 62%

    übermorgen, 19 Juli, Freitag

    Zeit Temperatur Niederschläge Wind Luftdruck Luftfeuchtigkeit
    00:00 +7°C° 0 mm 5 m/S 763 mmHg 65%
    01:00 +6°C° 0 mm 5 m/S 763 mmHg 69%
    02:00 +6°C° 0 mm 5 m/S 763 mmHg 70%
    03:00 +6°C° 0 mm 5 m/S 763 mmHg 72%
    04:00 +5°C° 0 mm 5 m/S 763 mmHg 73%
    05:00 +5°C° 0 mm 5 m/S 764 mmHg 73%
    06:00 +5°C° 0 mm 5 m/S 764 mmHg 74%
    07:00 +5°C° 0 mm 5 m/S 765 mmHg 74%
    08:00 +7°C° 0 mm 5 m/S 765 mmHg 68%
    09:00 +10°C° 0 mm 4 m/S 765 mmHg 62%
    10:00 +12°C° 0 mm 4 m/S 765 mmHg 55%
    11:00 +14°C° 0 mm 3 m/S 764 mmHg 52%
    12:00 +16°C° 0 mm 2 m/S 764 mmHg 48%
    13:00 +18°C° 0 mm 2 m/S 763 mmHg 44%
    14:00 +18°C° 0 mm 2 m/S 763 mmHg 47%
    15:00 +17°C° 0 mm 2 m/S 763 mmHg 50%
    16:00 +17°C° 0 mm 2 m/S 763 mmHg 53%
    17:00 +15°C° 0 mm 1 m/S 764 mmHg 60%
    18:00 +13°C° 0 mm 1 m/S 765 mmHg 68%
    19:00 +11°C° 0 mm 1 m/S 765 mmHg 75%
    20:00 +10°C° 0 mm 1 m/S 766 mmHg 76%
    21:00 +10°C° 0 mm 1 m/S 766 mmHg 77%
    22:00 +8°C° 0 mm 2 m/S 766 mmHg 78%
    23:00 +8°C° 0 mm 2 m/S 766 mmHg 79%

    20 Juli, Samstag

    Zeit Temperatur Niederschläge Wind Luftdruck Luftfeuchtigkeit
    00:00 +8°C° 0 mm 2 m/S 766 mmHg 80%
    01:00 +7°C° 0 mm 2 m/S 766 mmHg 81%
    02:00 +7°C° 0 mm 2 m/S 766 mmHg 84%
    03:00 +6°C° 0 mm 2 m/S 766 mmHg 87%
    04:00 +6°C° 0 mm 2 m/S 766 mmHg 90%
    05:00 +6°C° 0 mm 2 m/S 766 mmHg 91%
    06:00 +6°C° 0 mm 2 m/S 766 mmHg 92%
    07:00 +5°C° 0 mm 2 m/S 766 mmHg 93%
    08:00 +8°C° 0 mm 2 m/S 766 mmHg 81%
    09:00 +10°C° 0 mm 2 m/S 766 mmHg 70%
    10:00 +14°C° 0 mm 2 m/S 766 mmHg 58%
    11:00 +15°C° 0 mm 2 m/S 765 mmHg 54%
    12:00 +17°C° 0 mm 2 m/S 764 mmHg 50%
    13:00 +18°C° 0 mm 2 m/S 763 mmHg 46%
    14:00 +18°C° 0 mm 2 m/S 763 mmHg 48%
    15:00 +18°C° 0 mm 2 m/S 763 mmHg 51%
    16:00 +18°C° 0 mm 2 m/S 763 mmHg 53%
    17:00 +16°C° 0 mm 2 m/S 763 mmHg 59%
    18:00 +14°C° 0 mm 2 m/S 764 mmHg 65%
    19:00 +12°C° 0 mm 2 m/S 764 mmHg 71%
    20:00 +10°C° 0 mm 2 m/S 764 mmHg 72%
    21:00 +10°C° 0 mm 3 m/S 764 mmHg 74%
    22:00 +9°C° 0 mm 3 m/S 764 mmHg 75%
    23:00 +9°C° 0 mm 3 m/S 764 mmHg 76%

    21 Juli, Sonntag

    Zeit Temperatur Niederschläge Wind Luftdruck Luftfeuchtigkeit
    00:00 +8°C° 0 mm 3 m/S 763 mmHg 78%
    01:00 +8°C° 0 mm 3 m/S 763 mmHg 79%
    02:00 +7°C° 0 mm 3 m/S 763 mmHg 79%
    03:00 +7°C° 0 mm 3 m/S 763 mmHg 80%
    04:00 +5°C° 0 mm 4 m/S 763 mmHg 80%
    05:00 +5°C° 0 mm 4 m/S 763 mmHg 80%
    06:00 +5°C° 0 mm 4 m/S 763 mmHg 81%
    07:00 +5°C° 0 mm 3 m/S 763 mmHg 82%
    08:00 +8°C° 0 mm 4 m/S 763 mmHg 71%
    09:00 +11°C° 0 mm 4 m/S 763 mmHg 61%
    10:00 +14°C° 0 mm 4 m/S 763 mmHg 51%
    11:00 +17°C° 0 mm 4 m/S 762 mmHg 47%
    12:00 +19°C° 0 mm 4 m/S 762 mmHg 44%
    13:00 +21°C° 0 mm 5 m/S 761 mmHg 40%
    14:00 +20°C° 0 mm 4 m/S 761 mmHg 44%
    15:00 +20°C° 0 mm 4 m/S 761 mmHg 48%
    16:00 +20°C° 0 mm 3 m/S 761 mmHg 51%
    17:00 +18°C° 0 mm 4 m/S 761 mmHg 56%
    18:00 +17°C° 0 mm 4 m/S 762 mmHg 60%
    19:00 +14°C° 0 mm 5 m/S 762 mmHg 65%
    20:00 +13°C° 0 mm 4 m/S 763 mmHg 69%
    21:00 +12°C° 0 mm 4 m/S 763 mmHg 73%
    22:00 +12°C° 0 mm 3 m/S 763 mmHg 77%
    23:00 +11°C° 0 mm 3 m/S 763 mmHg 79%

    22 Juli, Montag

    Zeit Temperatur Niederschläge Wind Luftdruck Luftfeuchtigkeit
    00:00 +11°C° 0 mm 3 m/S 763 mmHg 82%
    01:00 +10°C° 0 mm 3 m/S 762 mmHg 84%
    02:00 +10°C° 0 mm 3 m/S 762 mmHg 86%
    03:00 +9°C° 0 mm 3 m/S 762 mmHg 87%
    04:00 +9°C° 0 mm 3 m/S 762 mmHg 89%
    05:00 +9°C° 0 mm 3 m/S 763 mmHg 89%
    06:00 +9°C° 0 mm 3 m/S 763 mmHg 90%
    07:00 +9°C° 0 mm 3 m/S 763 mmHg 90%
    08:00 +11°C° 0 mm 3 m/S 763 mmHg 79%
    09:00 +14°C° 0 mm 3 m/S 763 mmHg 69%
    10:00 +17°C° 0 mm 3 m/S 763 mmHg 58%
    11:00 +19°C° 0 mm 3 m/S 762 mmHg 53%
    12:00 +20°C° 0 mm 4 m/S 762 mmHg 47%
    13:00 +22°C° 0 mm 4 m/S 761 mmHg 42%
    14:00 +21°C° 0 mm 3 m/S 761 mmHg 45%
    15:00 +21°C° 0 mm 3 m/S 761 mmHg 48%
    16:00 +21°C° 0 mm 3 m/S 761 mmHg 50%
    17:00 +19°C° 0 mm 3 m/S 761 mmHg 56%
    18:00 +17°C° 0 mm 3 m/S 762 mmHg 63%
    19:00 +14°C° 0 mm 3 m/S 762 mmHg 69%
    20:00 +13°C° 0 mm 3 m/S 763 mmHg 71%
    21:00 +12°C° 0 mm 3 m/S 763 mmHg 73%
    22:00 +12°C° 0 mm 3 m/S 763 mmHg 75%
    23:00 +11°C° 0 mm 3 m/S 763 mmHg 76%
    Mehr zeigen